Ellsworth AFB, SD

10:28 AM MDT on June 23, 2017 (GMT -0600)
Ellsworth Air Force Base

Weather History for KRCA - April, 2014

Change the Weather History Date:

Tuesday, April 22, 2014

  Actual Average Record
Temperature  
Mean Temperature 56 °F -  
Max Temperature 75 °F 57 °F 80 °F (2009)
Min Temperature 39 °F 35 °F 17 °F (2013)
Degree Days  
Heating Degree Days 8    
Growing Degree Days 6 (Base 50)    
Moisture  
Dew Point 38 °F    
Average Humidity 46    
Maximum Humidity 64    
Minimum Humidity 31    
Precipitation  
Precipitation 0.00 in - - ()
Sea Level Pressure  
Sea Level Pressure 29.74 in    
Wind  
Wind Speed 11 mph (South)    
Max Wind Speed 17 mph    
Max Gust Speed -    
Visibility 10 miles    
Events      
Averages and records for this station are not official NWS values.
T = Trace of Precipitation, MM = Missing Value Source: NWS Daily Summary

Daily Weather History Graph

Daily Weather History Graph

Search for Another Location

Airport or City:

Trip Planner

Search our weather history database for the weather conditions in past years. The results will help you decide how hot, cold, wet, or windy it might be!

Date:

Astronomy

Apr. 22, 2014 Rise Set
Actual Time 5:57 AM MDT 7:45 PM MDT
Civil Twilight 5:26 AM MDT 8:16 PM MDT
Nautical Twilight 4:49 AM MDT 8:53 PM MDT
Astronomical Twilight 4:08 AM MDT 9:34 PM MDT
Moon 2:03 AM MDT (4/22) 12:34 PM MDT (4/22)
Length of Visible Light 14h 49m
Length of Day
13h 47m
Last Quarter, 45% of the Moon is Illuminated
Apr 22
Last Quarter
Apr 29
New
May 6
First Quarter
May 14
Full
May 21
Last Quarter

Hourly Weather History & Observations

Time (MDT) Temp. Windchill Dew Point Humidity Pressure Visibility Wind Dir Wind Speed Gust Speed Precip Events Conditions
12:58 AM 50.9 °F - 27.7 °F 41% 30.06 in 10.0 mi South 9.2 mph - N/A   Clear
1:58 AM 48.4 °F - 27.3 °F 44% 30.03 in 10.0 mi South 11.5 mph - N/A   Clear
2:58 AM 47.1 °F - 27.9 °F 47% 30.00 in 10.0 mi SSE 11.5 mph - N/A   Clear
3:58 AM 44.4 °F 38.2 °F 28.0 °F 53% 29.98 in 10.0 mi South 12.7 mph - N/A   Clear
4:58 AM 41.9 °F 36.3 °F 28.2 °F 58% 29.94 in 10.0 mi South 9.2 mph - N/A   Clear
5:58 AM 39.6 °F 32.1 °F 28.4 °F 64% 29.91 in 10.0 mi SSE 12.7 mph - N/A   Clear
6:58 AM 42.6 °F 37.2 °F 29.1 °F 59% 29.90 in 10.0 mi SE 9.2 mph - N/A   Clear
7:58 AM 49.8 °F - 30.4 °F 47% 29.88 in 10.0 mi South 10.4 mph - N/A   Clear
9:58 AM 59.4 °F - 36.1 °F 42% 29.81 in 10.0 mi South 13.8 mph - N/A   Clear
10:58 AM 63.1 °F - 38.1 °F 40% 29.79 in 10.0 mi South 11.5 mph - N/A   Mostly Cloudy
11:58 AM 66.6 °F - 38.7 °F 36% 29.74 in 10.0 mi South 9.2 mph - N/A   Mostly Cloudy
12:58 PM 69.4 °F - 41.0 °F 36% 29.70 in 10.0 mi South 15.0 mph - N/A   Mostly Cloudy
1:58 PM 74.1 °F - 41.5 °F 31% 29.66 in 10.0 mi SSE 13.8 mph - N/A   Mostly Cloudy
2:58 PM 73.9 °F - 43.5 °F 34% 29.62 in 10.0 mi SE 12.7 mph - N/A   Mostly Cloudy
3:58 PM 73.8 °F - 44.4 °F 35% 29.60 in 10.0 mi SSE 11.5 mph - N/A   Mostly Cloudy
4:58 PM 73.0 °F - 45.7 °F 38% 29.59 in 10.0 mi South 17.3 mph - N/A   Scattered Clouds
5:58 PM 71.4 °F - 46.2 °F 41% 29.59 in 10.0 mi South 13.8 mph - N/A   Mostly Cloudy
6:58 PM 69.8 °F - 44.1 °F 39% 29.57 in 10.0 mi South 15.0 mph - N/A   Mostly Cloudy
7:58 PM 67.6 °F - 42.4 °F 40% 29.56 in 10.0 mi South 10.4 mph - N/A   Overcast
8:58 PM 65.3 °F - 44.1 °F 46% 29.55 in 10.0 mi South 12.7 mph - N/A   Overcast
9:58 PM 61.0 °F - 44.2 °F 54% 29.58 in 10.0 mi South 9.2 mph - N/A   Mostly Cloudy
10:54 PM 60.8 °F - 44.6 °F 55% 29.57 in 10.0 mi SSE 11.5 mph - N/A   Overcast
10:58 PM 60.4 °F - 44.4 °F 56% 29.52 in 10.0 mi SSE 15.0 mph - N/A   Overcast
11:58 PM 58.5 °F - 45.7 °F 62% 29.50 in 10.0 mi South 9.2 mph - N/A   Scattered Clouds